Location: Arbon
(43.0005°N, 0.7472°E)
Time: 18:54:13
(UTC+00:00)

SL-4 R/B - Pass Details

Date: 07 August 2020
Orbit: 428 x 665 km, 51.6° (Epoch: 23 September)

Event Time Altitude Azimuth Distance (km) Brightness Sun altitude
Exits shadow 03:33:33 - 300° (WNW) 2,425 5.1 -13.5°
Rises 03:33:34 0° 300° (WNW) 2,413 5.1 -13.5°
Reaches altitude 10° 03:35:44 10° 295° (WNW) 1,530 4.0 -13.2°
Maximum altitude 03:39:03 52° 218° (SW) 537 1.6 -12.7°
Drops below altitude 10° 03:42:22 10° 141° (SE) 1,526 4.3 -12.3°
Sets 03:44:31 0° 137° (SE) 2,405 5.4 -11.9°
